This is the latest recevied weather packets stored in our database for station/object W4MLN-3. If no packets are shown the sender has not sent any weather packets the latest 10 day(s).
| Time | Temp. | Humidity | Pressure | Rain* | Wind** | Luminosity | Snow |
|---|---|---|---|---|---|---|---|
| 1777920024 | 20° C | 47% | 1015.4 hPa | 0 mm | - | - | - |
| 1777919724 | 20° C | 49% | 1015.4 hPa | 0 mm | - | - | - |
| 1777919403 | 19.44° C | 48% | 1015.5 hPa | 0 mm | - | - | - |
| 1777919103 | 18.89° C | 50% | 1015.4 hPa | 0 mm | - | - | - |
| 1777918804 | 18.89° C | 49% | 1015.6 hPa | 0 mm | - | - | - |
| 1777918503 | 18.89° C | 51% | 1015.6 hPa | 0 mm | - | - | - |
| 1777918245 | 18.89° C | 49% | 1015.6 hPa | 0 mm | - | - | - |
| 1777917903 | 18.89° C | 50% | 1015.7 hPa | 0 mm | - | - | - |
| 1777917603 | 18.89° C | 48% | 1015.7 hPa | 0 mm | - | - | - |
| 1777917303 | 18.89° C | 49% | 1015.7 hPa | 0 mm | - | - | - |
| 1777917003 | 18.33° C | 49% | 1015.6 hPa | 0 mm | - | - | - |
| 1777916703 | 18.33° C | 47% | 1015.8 hPa | 0 mm | - | - | - |
| 1777916403 | 18.33° C | 51% | 1015.8 hPa | 0 mm | - | - | - |
| 1777916103 | 18.33° C | 47% | 1015.8 hPa | 0 mm | - | - | - |
| 1777915803 | 18.33° C | 46% | 1015.9 hPa | 0 mm | - | - | - |
| 1777915524 | 18.89° C | 46% | 1015.8 hPa | 0 mm | - | - | - |
| 1777915203 | 18.89° C | 49% | 1015.8 hPa | 0 mm | - | - | - |
| 1777914903 | 18.89° C | 46% | 1015.8 hPa | 0 mm | - | - | - |
| 1777914603 | 18.89° C | 45% | 1015.7 hPa | 0 mm | - | - | - |
| 1777914303 | 18.89° C | 43% | 1015.8 hPa | 0 mm | - | - | - |
| 1777914003 | 18.89° C | 44% | 1015.9 hPa | 0 mm | - | - | - |
| 1777913703 | 18.89° C | 43% | 1015.9 hPa | 0 mm | - | - | - |
| 1777913403 | 18.33° C | 50% | 1016 hPa | 0 mm | - | - | - |
| 1777913103 | 18.33° C | 46% | 1016.1 hPa | 0 mm | - | - | - |
| 1777912803 | 17.78° C | 48% | 1015.9 hPa | 0 mm | - | - | - |
* Rain latest hour (hover to see other rain measurements)
** Current wind speed in m/s (hover to see current wind gust speed)